TimeCDT,TemperatureF,Dew PointF,Humidity,Sea Level PressureIn,VisibilityMPH,Wind Direction,Wind SpeedMPH,Gust SpeedMPH,PrecipitationIn,Events,Conditions,WindDirDegrees,DateUTC
12:54 AM,62.1,57.0,84,30.17,10.0,East,8.1,-,N/A,,Clear,100,2013-05-24 05:54:00
1:54 AM,61.0,55.9,83,30.18,10.0,East,6.9,-,N/A,,Clear,90,2013-05-24 06:54:00
2:54 AM,60.1,55.9,86,30.19,10.0,East,9.2,17.3,N/A,,Mostly Cloudy,80,2013-05-24 07:54:00
3:54 AM,59.0,55.0,87,30.18,10.0,East,9.2,-,N/A,,Overcast,90,2013-05-24 08:54:00
4:54 AM,59.0,55.0,87,30.19,10.0,East,10.4,-,N/A,,Overcast,100,2013-05-24 09:54:00
5:54 AM,57.9,54.0,87,30.19,10.0,East,8.1,-,N/A,,Clear,90,2013-05-24 10:54:00
6:54 AM,57.9,55.0,90,30.20,10.0,East,10.4,17.3,N/A,,Mostly Cloudy,100,2013-05-24 11:54:00
7:54 AM,61.0,55.0,81,30.18,10.0,East,16.1,25.3,N/A,,Scattered Clouds,100,2013-05-24 12:54:00
8:54 AM,62.1,55.9,80,30.21,10.0,ESE,13.8,20.7,N/A,,Clear,110,2013-05-24 13:54:00
9:54 AM,66.0,57.9,75,30.21,10.0,ESE,15.0,23.0,N/A,,Clear,110,2013-05-24 14:54:00
10:38 AM,69.8,59.0,68,30.22,10.0,ESE,15.0,19.6,N/A,,Mostly Cloudy,110,2013-05-24 15:38:00
10:54 AM,68.0,59.0,73,30.20,10.0,ESE,15.0,21.9,N/A,,Overcast,110,2013-05-24 15:54:00
11:21 AM,69.8,60.8,73,30.21,10.0,ESE,10.4,20.7,N/A,,Overcast,120,2013-05-24 16:21:00
11:54 AM,70.0,61.0,73,30.19,10.0,ESE,11.5,19.6,N/A,,Overcast,110,2013-05-24 16:54:00
12:54 PM,73.9,64.0,71,30.19,10.0,ESE,11.5,18.4,N/A,,Overcast,120,2013-05-24 17:54:00
1:54 PM,75.0,64.0,69,30.17,10.0,SE,13.8,-,N/A,,Mostly Cloudy,130,2013-05-24 18:54:00
2:24 PM,75.2,66.2,73,30.19,10.0,SE,15.0,-,N/A,,Overcast,140,2013-05-24 19:24:00
2:42 PM,77.0,66.2,69,30.18,10.0,SE,11.5,19.6,N/A,,Mostly Cloudy,140,2013-05-24 19:42:00
2:54 PM,78.1,66.9,68,30.16,10.0,SE,12.7,21.9,N/A,,Scattered Clouds,130,2013-05-24 19:54:00
3:54 PM,78.1,66.0,66,30.14,10.0,SE,13.8,20.7,N/A,,Scattered Clouds,130,2013-05-24 20:54:00
4:54 PM,78.1,66.9,68,30.11,10.0,SE,16.1,23.0,N/A,,Overcast,130,2013-05-24 21:54:00
5:54 PM,77.0,68.0,74,30.09,10.0,SE,13.8,-,N/A,,Overcast,140,2013-05-24 22:54:00
6:54 PM,77.0,66.9,71,30.07,10.0,SE,12.7,-,N/A,,Scattered Clouds,130,2013-05-24 23:54:00
7:54 PM,75.0,66.9,76,30.07,10.0,SE,9.2,20.7,N/A,,Clear,140,2013-05-25 00:54:00
8:54 PM,73.0,66.0,79,30.06,9.0,SE,10.4,-,N/A,,Clear,140,2013-05-25 01:54:00
9:54 PM,71.1,66.0,84,30.09,10.0,SE,13.8,-,N/A,,Clear,140,2013-05-25 02:54:00
10:34 PM,71.6,66.2,83,30.12,10.0,SE,11.5,-,N/A,,Mostly Cloudy,140,2013-05-25 03:34:00
10:54 PM,70.0,66.0,87,30.11,10.0,SSE,11.5,-,N/A,,Mostly Cloudy,150,2013-05-25 03:54:00
11:23 PM,69.8,64.4,83,30.12,10.0,SSE,12.7,-,N/A,,Scattered Clouds,150,2013-05-25 04:23:00
11:54 PM,69.1,64.9,87,30.09,10.0,SSE,12.7,-,N/A,,Clear,150,2013-05-25 04:54:00